[[[{"header":{"parameterUnit":"kt","parameterCategory":2,"dx":1,"dy":1,"la1":30.253999710083008,"la2":30.299108505249023,"lo1":-89.0895004272461,"lo2":-89.04439544677734,"nx":28,"ny":28,"refTime":"2022-10-03T21:00:00:Z","depth":0,"parameterNumber":1,"parameterNumberName":"U-component_of_WINDS"},"data":[-5.1645,-5.1808,-5.1841,-5.2042,-5.2106,-5.2248,-5.231,-5.2392,-5.2466,-5.2639,-5.2745,-5.2794,-5.288,-5.3013,-5.3128,-5.3147,-5.3192,-5.3226,-5.3242,-5.3062,-5.3039,-5.3017,-5.298,-5.3237,-5.3237,-5.3424,-5.3426,-5.3427,-5.1509,-5.1573,-5.169,-5.1824,-5.1924,-5.1911,-5.2017,-5.2101,-5.2228,-5.2321,-5.2427,-5.2582,-5.2708,-5.2784,-5.2911,-5.2987,-5.2987,-5.3018,-5.3012,-5.3025,-5.2834,-5.2794,-5.3016,-5.3016,-5.3016,-5.3016,-5.3016,-5.3016,-5.1269,-5.1366,-5.1466,-5.1593,-5.167,-5.176,-5.1858,-5.1916,-5.203,-5.2167,-5.2183,-5.2328,-5.2426,-5.2595,-5.2659,-5.2772,-5.2743,-5.2787,-5.2798,-5.2808,-5.2814,-5.2536,-5.2796,-5.2795,-5.2795,-5.2794,-5.2794,0,-5.1102,-5.1123,-5.1237,-5.1361,-5.1456,-5.1555,-5.1651,-5.1713,-5.1766,-5.1858,-5.1994,-5.2077,-5.2241,-5.2371,-5.2497,-5.2555,-5.2548,-5.2552,-5.2582,-5.2575,-5.2552,-5.2564,-5.2249,-5.2544,-5.2542,-5.254,-5.2539,-5.2538,-5.0861,-5.0971,-5.1092,-5.1168,-5.1229,-5.1351,-5.1429,-5.1469,-5.1551,-5.1675,-5.1758,-5.189,-5.1996,-5.2207,-5.2272,-5.2395,-5.2392,-5.2501,-5.2411,-5.24,-5.2392,-5.2384,-5.2395,-5.2517,-5.252,-5.2522,-5.2524,0,-5.0721,-5.0774,-5.0955,-5.1065,-5.1095,-5.1208,-5.1301,-5.14,-5.1445,-5.1587,-5.1622,-5.1693,-5.1825,-5.1874,-5.2034,-5.2055,-5.2239,-5.2235,-5.2205,-5.2206,-5.2307,-5.2296,-5.263,-5.2675,-5.2411,-5.2414,-5.2416,0,-5.0535,-5.0678,-5.0748,-5.0851,-5.1011,-5.1047,-5.1204,-5.1258,-5.1344,-5.1456,-5.1457,-5.1562,-5.1608,-5.172,-5.1751,-5.191,-5.1941,-5.1966,-5.1972,-5.1965,-5.1961,-5.2006,-5.1993,-5.1984,-5.1982,-5.1981,-5.1979,0,-5.0309,-5.0515,-5.0682,-5.0737,-5.0868,-5.0945,-5.1003,-5.1099,-5.1176,-5.1283,-5.1333,-5.1456,-5.1523,-5.1618,-5.1656,-5.1593,-5.1853,-5.1774,-5.1878,-5.1877,-5.1931,-5.1927,-5.2213,-5.1977,-5.1977,-5.1976,-5.1976,0,-5.0165,-5.0275,-5.051,-5.0618,-5.067,-5.078,-5.0903,-5.1009,-5.111,-5.1137,-5.1222,-5.1227,-5.1372,-5.129,-5.1489,-5.1396,-5.1461,-5.1498,-5.1507,-5.1521,-5.1426,-5.1578,-5.1847,-5.1876,-5.1536,-5.1532,-5.1529,0,-4.9891,-5.0142,-5.0175,-5.0397,-5.052,-5.0512,-5.0635,-5.0725,-5.0771,-5.0881,-5.0931,-5.1056,-5.1005,-5.105,-5.1143,-5.1199,-5.1322,-5.1185,-5.1339,-5.1344,-5.1311,-5.156,-5.1586,-5.1784,-5.1483,-5.1488,-5.1491,0,-4.9684,-4.9843,-4.988,-4.9944,-5.0069,-5.0172,-5.0314,-5.0446,-5.0517,-5.0618,-5.0736,-5.0914,-5.0881,-5.0957,-5.0974,-5.1068,-5.124,-5.1021,-5.1024,-5.1057,-5.1464,-5.1489,-5.1522,-5.1231,-5.1236,-5.1241,-5.1455,0,-4.9452,-4.9585,-4.9689,-4.9831,-4.9919,-5.0061,-5.0113,-5.0197,-5.0205,-5.025,-5.0426,-5.0512,-5.0646,-5.0697,-5.0705,-5.0906,-5.0879,-5.0844,-5.0765,-5.0929,-5.1,-5.1029,-5.0654,-5.0652,-5.0651,-5.0649,0,0,-4.9175,-4.9367,-4.9398,-4.9537,-4.9612,-4.9602,-4.975,-4.9822,-4.9967,-5.0019,-4.9976,-5.0238,-5.0309,-5.0517,-5.0572,-5.0627,-5.0667,-5.0608,-5.0851,-5.0873,-5.0894,-5.0969,-5.0999,-5.0646,-5.0646,-5.0645,-5.0645,0,-4.91,-4.9176,-4.9322,-4.9398,-4.9512,-4.9553,-4.9588,-4.9699,-4.9734,-4.9907,-4.9895,-5.0007,-5.0216,-5.0293,-5.0359,-5.0585,-5.0568,-5.0622,-5.0725,-5.0832,-5.0857,-5.0878,-5.0957,-5.0985,-5.064,-5.0641,-5.0641,0,-4.8904,-4.8986,-4.9063,-4.9235,-4.9309,-4.9436,-4.9366,-4.9503,-4.9597,-4.9578,-4.9749,-4.9804,-4.9911,-5.0102,-5.0189,-5.0152,-5.0475,-5.0383,-5.0395,-5.0405,-5.0511,-5.054,-5.0566,-5.0221,-5.0219,-5.0217,0,0,-4.8832,-4.8957,-4.9056,-4.9223,-4.927,-4.9333,-4.9406,-4.9421,-4.9518,-4.9557,-4.9627,-4.9721,-4.9843,-4.9922,-5.0039,-5.0241,-5.0265,-5.0329,-5.0349,-5.0365,-5.0384,-5.0493,-5.0523,-5.0211,-5.0211,-5.0211,0,0,-4.8797,-4.892,-4.8911,-4.9111,-4.9204,-4.9312,-4.9411,-4.9403,-4.9513,-4.9502,-4.9534,-4.956,-4.9739,-4.9793,-4.9703,-5.0011,-4.9932,-4.9955,-4.9969,-4.9995,-5.0014,-4.9996,-4.9642,0,0,0,0,0,-4.8747,-4.8904,-4.8895,-4.8936,-4.9153,-4.9318,-4.9345,-4.9376,-4.9319,-4.9397,-4.9453,-4.9432,-4.9751,-4.9672,-4.9711,-4.9811,-5.013,-5.0144,-5.0158,-5.0224,-5.025,-5.0272,0,0,0,0,0,0,-4.8763,-4.8814,-4.8891,-4.9006,-4.9055,-4.9312,-4.9223,-4.9236,-4.9312,-4.9305,-4.9421,-4.9435,-4.9463,-4.9653,-4.9689,-4.9783,-4.963,-5.0135,-5.0148,-5.0159,-5.0233,-5.0254,-5.0273,0,0,0,0,0,-4.8777,-4.8817,-4.9157,-4.9004,-4.9046,-4.9124,-4.9217,-4.9227,-4.9286,-4.9374,-4.9387,-4.9302,-4.9465,-4.9497,-4.9675,-4.9766,-4.9606,-4.9619,-5.0143,-5.0153,-5.0162,-5.0243,0,0,0,0,0,0,-4.8786,-4.8827,-4.9167,-4.9181,-4.8946,-4.911,-4.9137,-4.922,-4.9351,-4.9366,-4.9256,-4.9249,-4.9469,-4.9493,-4.9517,-4.9759,-4.9586,-4.96,-4.9608,-5.0151,-5.0158,-5.0165,0,0,0,0,0,0,-4.8805,-4.8839,-4.9174,-4.91,-4.9106,-4.9097,-4.9121,-4.9276,-4.9353,-4.9225,-4.9224,-4.9251,-4.9431,-4.949,-4.9509,-4.975,-4.9571,-4.9584,-4.9593,-4.9598,-5.0157,-5.0163,0,0,0,0,0,0,-4.882,-4.8849,-4.9096,-4.9101,-4.9106,-4.9266,-4.9235,-4.9455,-4.929,-4.9219,-4.9276,-4.927,-4.943,-4.9449,-4.9504,-4.9737,-4.9747,-4.9572,-4.958,-4.9587,-4.9591,0,0,0,0,0,0,0,-4.8832,-4.8632,-4.9083,-4.9102,-4.9106,-4.931,-4.9314,-4.9318,-4.9289,-4.9283,-4.9278,-4.9273,-4.9499,-4.9513,-4.9527,-4.9726,0,0,-4.957,-4.9577,0,0,0,0,0,0,0,0,-4.862,-4.8629,-4.9084,-4.9087,-4.909,-4.9311,-4.9314,-4.9317,-4.9288,-4.9284,-4.9279,-4.9275,-4.9502,-4.9514,-4.9525,0,0,0,0,0,0,0,0,0,0,0,0,0,0,0,-4.9084,-4.9087,0,-4.9312,-4.9314,-4.9317,-4.9287,-4.9284,-4.928,-4.9277,-4.9505,-4.9515,-4.9524,0,0,0,0,0,0,0,0,0,0,0,0,0,0,0,0,0,0,0,0,0,0,0,0,0,0,0,0,0,0,0,0,0,0,0,0,0,0,0,0,0,0,0,0,0,0,0,0,0,0,0,0,0,0,0,0,0,0,0,0,0,0,0,0,0,0,0,0,0]}],[{"header":{"parameterUnit":"kt","parameterCategory":2,"dx":1,"dy":1,"la1":30.253999710083008,"la2":30.299108505249023,"lo1":-89.0895004272461,"lo2":-89.04439544677734,"nx":28,"ny":28,"refTime":"2022-10-03T21:00:00:Z","depth":0,"parameterNumber":2,"parameterNumberName":"V-component_of_WINDS"},"data":[-1.3649,-1.3801,-1.3925,-1.4155,-1.4307,-1.4486,-1.4591,-1.4739,-1.4889,-1.5119,-1.5273,-1.5416,-1.5617,-1.5833,-1.6008,-1.6068,-1.6133,-1.6093,-1.6171,-1.6233,-1.625,-1.6266,-1.6238,-1.6106,-1.6105,-1.6089,-1.6089,-1.6088,-1.3676,-1.3827,-1.3986,-1.4225,-1.4363,-1.4476,-1.4676,-1.4784,-1.4942,-1.5129,-1.529,-1.5503,-1.5688,-1.5909,-1.6109,-1.6184,-1.6249,-1.6229,-1.6225,-1.6255,-1.6326,-1.6295,-1.6172,-1.6172,-1.6172,-1.6172,-1.6172,-1.6172,-1.376,-1.3846,-1.4065,-1.4241,-1.4397,-1.4556,-1.4661,-1.4836,-1.4995,-1.522,-1.5342,-1.5524,-1.5738,-1.6044,-1.6179,-1.6325,-1.6372,-1.639,-1.6395,-1.6396,-1.6378,-1.6381,-1.6366,-1.6367,-1.6368,-1.6369,-1.6369,0,-1.3861,-1.396,-1.4124,-1.4323,-1.4459,-1.4627,-1.4803,-1.4872,-1.5131,-1.5251,-1.5438,-1.5567,-1.5822,-1.6012,-1.623,-1.6371,-1.6503,-1.6531,-1.6544,-1.6486,-1.6404,-1.6448,-1.6556,-1.6531,-1.6533,-1.6535,-1.6536,-1.6536,-1.3954,-1.4041,-1.4334,-1.4431,-1.456,-1.4715,-1.4834,-1.5056,-1.5172,-1.5423,-1.549,-1.5684,-1.5851,-1.613,-1.6338,-1.653,-1.6597,-1.6572,-1.6627,-1.6566,-1.6595,-1.6587,-1.6597,-1.6557,-1.6554,-1.6552,-1.655,0,-1.3993,-1.4203,-1.4381,-1.4665,-1.4739,-1.4819,-1.5063,-1.5161,-1.5323,-1.5479,-1.5529,-1.5784,-1.5964,-1.6179,-1.6429,-1.6535,-1.667,-1.6731,-1.6596,-1.662,-1.6618,-1.6615,-1.6583,-1.659,-1.6731,-1.673,-1.6728,0,-1.4155,-1.4262,-1.4569,-1.4661,-1.4788,-1.5011,-1.513,-1.5282,-1.5473,-1.5599,-1.5785,-1.5898,-1.6156,-1.6301,-1.6459,-1.6607,-1.6656,-1.6745,-1.6786,-1.6729,-1.6717,-1.6795,-1.68,-1.6876,-1.6876,-1.6876,-1.6876,0,-1.4194,-1.4487,-1.4639,-1.474,-1.5056,-1.5122,-1.5257,-1.5474,-1.5589,-1.5774,-1.5851,-1.605,-1.6159,-1.631,-1.651,-1.6538,-1.6698,-1.6779,-1.679,-1.6785,-1.6815,-1.681,-1.6728,-1.6876,-1.6876,-1.6876,-1.6876,0,-1.4358,-1.454,-1.4729,-1.4997,-1.5066,-1.5166,-1.5378,-1.5514,-1.5729,-1.5836,-1.5984,-1.6134,-1.6284,-1.6348,-1.6557,-1.6537,-1.6633,-1.6735,-1.6739,-1.6766,-1.6832,-1.6755,-1.6656,-1.6654,-1.6788,-1.6788,-1.6788,0,-1.4345,-1.4594,-1.4788,-1.4964,-1.5109,-1.5309,-1.5426,-1.5612,-1.5764,-1.5909,-1.6079,-1.6244,-1.6338,-1.642,-1.6495,-1.6676,-1.6702,-1.6679,-1.6885,-1.689,-1.682,-1.6732,-1.6663,-1.6654,-1.6781,-1.6782,-1.6782,0,-1.4362,-1.4748,-1.4766,-1.4891,-1.5175,-1.5299,-1.5432,-1.5646,-1.5731,-1.5922,-1.604,-1.6279,-1.6359,-1.6493,-1.6639,-1.6705,-1.6691,-1.6783,-1.6792,-1.6758,-1.6797,-1.673,-1.6728,-1.6774,-1.6775,-1.6776,-1.6777,0,-1.4558,-1.4713,-1.4771,-1.5042,-1.5172,-1.5296,-1.5528,-1.5634,-1.576,-1.592,-1.6098,-1.6311,-1.653,-1.6587,-1.6712,-1.6797,-1.6817,-1.6902,-1.6981,-1.6921,-1.6928,-1.693,-1.6952,-1.6956,-1.6959,-1.6962,0,0,-1.4492,-1.4719,-1.4932,-1.5072,-1.5194,-1.5404,-1.5515,-1.566,-1.5947,-1.6027,-1.6073,-1.6439,-1.6611,-1.6803,-1.6803,-1.6892,-1.6929,-1.6942,-1.6948,-1.6945,-1.6944,-1.6946,-1.6945,-1.6967,-1.6968,-1.6969,-1.697,0,-1.4613,-1.4783,-1.4892,-1.5051,-1.5295,-1.546,-1.5485,-1.5765,-1.5873,-1.6051,-1.6222,-1.6358,-1.6646,-1.6805,-1.6923,-1.6924,-1.7046,-1.6974,-1.6895,-1.6971,-1.6964,-1.696,-1.6959,-1.6956,-1.6978,-1.6978,-1.6977,0,-1.467,-1.4876,-1.4954,-1.5246,-1.5409,-1.5555,-1.5694,-1.5843,-1.5954,-1.6179,-1.6352,-1.6502,-1.6735,-1.6888,-1.6966,-1.701,-1.7139,-1.7141,-1.7128,-1.7142,-1.7228,-1.7219,-1.7211,-1.7309,-1.7309,-1.731,0,0,-1.4743,-1.4889,-1.5182,-1.529,-1.538,-1.5628,-1.573,-1.5869,-1.6074,-1.6155,-1.6352,-1.6546,-1.6717,-1.6824,-1.6997,-1.7132,-1.7198,-1.7172,-1.7157,-1.7143,-1.7149,-1.723,-1.7222,-1.731,-1.731,-1.731,0,0,-1.4779,-1.5123,-1.5215,-1.537,-1.5558,-1.5855,-1.5912,-1.6033,-1.6212,-1.6224,-1.6467,-1.6529,-1.6677,-1.6818,-1.68,-1.7029,-1.7103,-1.7112,-1.6931,-1.6915,-1.69,-1.6863,-1.6975,0,0,0,0,0,-1.5023,-1.508,-1.516,-1.5221,-1.5593,-1.5809,-1.5859,-1.606,-1.6107,-1.6147,-1.6331,-1.6456,-1.6858,-1.6848,-1.6905,-1.6923,-1.7319,-1.7318,-1.7316,-1.7117,-1.7097,-1.708,0,0,0,0,0,0,-1.5049,-1.5122,-1.516,-1.5455,-1.5541,-1.581,-1.5934,-1.5991,-1.6108,-1.6129,-1.6417,-1.6466,-1.6641,-1.6833,-1.6881,-1.6894,-1.6959,-1.7319,-1.7317,-1.7316,-1.711,-1.7094,-1.708,0,0,0,0,0,-1.507,-1.513,-1.5674,-1.5456,-1.553,-1.5811,-1.5933,-1.5982,-1.6077,-1.6362,-1.6415,-1.6218,-1.6636,-1.6691,-1.6863,-1.6867,-1.6927,-1.6945,-1.7318,-1.7317,-1.7316,-1.7102,0,0,0,0,0,0,-1.5086,-1.5176,-1.5694,-1.5724,-1.545,-1.5801,-1.5862,-1.5973,-1.6306,-1.6358,-1.6174,-1.6187,-1.6634,-1.6677,-1.6718,-1.6846,-1.6901,-1.6919,-1.693,-1.7317,-1.7316,-1.7315,0,0,0,0,0,0,-1.5145,-1.52,-1.5709,-1.5691,-1.5721,-1.5789,-1.5844,-1.602,-1.6307,-1.6101,-1.6122,-1.6176,-1.6572,-1.6666,-1.6699,-1.6966,-1.6881,-1.6898,-1.691,-1.6917,-1.7316,-1.7316,0,0,0,0,0,0,-1.5172,-1.5219,-1.5684,-1.5707,-1.5734,-1.6088,-1.5949,-1.6319,-1.629,-1.6083,-1.6293,-1.6294,-1.6558,-1.6596,-1.6685,-1.6937,-1.6958,-1.6882,-1.6893,-1.6901,-1.6907,0,0,0,0,0,0,0,-1.5194,-1.4831,-1.5514,-1.5721,-1.5744,-1.6003,-1.6011,-1.6019,-1.629,-1.6291,-1.6293,-1.6294,-1.6786,-1.6804,-1.6823,-1.6913,0,0,-1.688,-1.6888,0,0,0,0,0,0,0,0,-1.4816,-1.4827,-1.5515,-1.5521,-1.5527,-1.6004,-1.6011,-1.6018,-1.629,-1.6291,-1.6292,-1.6293,-1.6791,-1.6805,-1.682,0,0,0,0,0,0,0,0,0,0,0,0,0,0,0,-1.5516,-1.5521,0,-1.6005,-1.6011,-1.6016,-1.629,-1.6291,-1.6292,-1.6293,-1.6795,-1.6807,-1.6819,0,0,0,0,0,0,0,0,0,0,0,0,0,0,0,0,0,0,0,0,0,0,0,0,0,0,0,0,0,0,0,0,0,0,0,0,0,0,0,0,0,0,0,0,0,0,0,0,0,0,0,0,0,0,0,0,0,0,0,0,0,0,0,0,0,0,0,0,0]}]]]